Back to Top

Language: 

My Weather Underground Personal Weather Station Historical Data with Graphs...

Delerius Weather Station Historical Data
Daily Summary for April 25, 2017 Units:  English    Metric   Both
« Previous Day
Next Day »
Daily Weekly Monthly Yearly Custom
  High: Low: Average:
Temperature: 49.3 °F 31.5 °F 40.2 °F
Dew Point: 39.1 °F 26.0 °F 31.6 °F
Humidity: 83 % 54 % 72 %
Wind Speed: 12.0 mph 1.0 mph 6.6 mph
Wind Gust: 26.0 mph - -
Wind:- - WNW
Pressure: 30.05 in 29.87 in -
Precipitation: 0.02 in    
Historical Graphs
 
 
Tabular Data for April 25, 2017
Time Temperature Dew Point Pressure Wind Wind Speed Wind Gust Humidity Rainfall Rate (Hourly) solar Conditions
00:04 35.8 °F 29.0 °F 29.90 in WNW 6.0 mph 13.0 mph 76 % 0.00 in 0 W/m2
00:09 35.8 °F 29.0 °F 29.90 in WNW 5.0 mph 10.0 mph 76 % 0.00 in 0 W/m2
00:14 35.6 °F 28.8 °F 29.90 in WNW 4.0 mph 10.0 mph 76 % 0.00 in 0 W/m2
00:19 35.4 °F 28.6 °F 29.90 in WNW 4.0 mph 9.0 mph 76 % 0.00 in 0 W/m2
00:24 35.4 °F 28.6 °F 29.89 in WNW 5.0 mph 10.0 mph 76 % 0.00 in 0 W/m2
00:29 35.2 °F 28.4 °F 29.89 in WNW 6.0 mph 10.0 mph 76 % 0.00 in 0 W/m2
00:34 35.2 °F 28.4 °F 29.89 in WNW 5.0 mph 10.0 mph 76 % 0.00 in 0 W/m2
00:39 35.1 °F 28.3 °F 29.89 in WNW 5.0 mph 9.0 mph 76 % 0.00 in 0 W/m2
00:44 35.1 °F 28.3 °F 29.89 in WNW 5.0 mph 9.0 mph 76 % 0.00 in 0 W/m2
00:49 34.9 °F 28.1 °F 29.89 in WNW 5.0 mph 9.0 mph 76 % 0.00 in 0 W/m2
00:54 34.5 °F 28.1 °F 29.89 in West 5.0 mph 10.0 mph 77 % 0.00 in 0 W/m2
00:59 34.3 °F 27.9 °F 29.88 in WNW 5.0 mph 10.0 mph 77 % 0.00 in 0 W/m2
01:04 34.3 °F 27.9 °F 29.88 in WNW 4.0 mph 9.0 mph 77 % 0.00 in 0 W/m2
01:09 34.2 °F 27.7 °F 29.88 in WNW 4.0 mph 9.0 mph 77 % 0.00 in 0 W/m2
01:14 34.2 °F 27.7 °F 29.88 in WNW 4.0 mph 10.0 mph 77 % 0.00 in 0 W/m2
01:19 34.2 °F 27.7 °F 29.88 in WNW 5.0 mph 10.0 mph 77 % 0.00 in 0 W/m2
01:24 34.2 °F 27.4 °F 29.88 in WNW 6.0 mph 13.0 mph 76 % 0.00 in 0 W/m2
01:29 34.3 °F 27.6 °F 29.88 in WNW 6.0 mph 13.0 mph 76 % 0.00 in 0 W/m2
01:34 34.3 °F 27.2 °F 29.88 in WNW 7.0 mph 12.0 mph 75 % 0.00 in 0 W/m2
01:39 34.3 °F 27.2 °F 29.88 in WNW 7.0 mph 12.0 mph 75 % 0.00 in 0 W/m2
01:44 34.3 °F 27.2 °F 29.88 in WNW 7.0 mph 12.0 mph 75 % 0.00 in 0 W/m2
01:49 34.3 °F 26.9 °F 29.87 in WNW 7.0 mph 11.0 mph 74 % 0.00 in 0 W/m2
01:54 34.3 °F 26.9 °F 29.87 in WNW 7.0 mph 11.0 mph 74 % 0.00 in 0 W/m2
01:59 34.2 °F 26.7 °F 29.87 in WNW 7.0 mph 10.0 mph 74 % 0.00 in 0 W/m2
02:04 34.2 °F 26.7 °F 29.87 in WNW 6.0 mph 11.0 mph 74 % 0.00 in 0 W/m2
02:09 34.0 °F 26.6 °F 29.87 in WNW 6.0 mph 11.0 mph 74 % 0.00 in 0 W/m2
02:14 34.0 °F 26.6 °F 29.87 in WNW 7.0 mph 11.0 mph 74 % 0.00 in 0 W/m2
02:19 33.8 °F 26.7 °F 29.87 in WNW 6.0 mph 11.0 mph 75 % 0.00 in 0 W/m2
02:25 33.6 °F 26.5 °F 29.87 in WNW 6.0 mph 10.0 mph 75 % 0.00 in 0 W/m2
02:30 33.4 °F 26.4 °F 29.87 in WNW 6.0 mph 10.0 mph 75 % 0.00 in 0 W/m2
02:33 33.4 °F 26.4 °F 29.87 in WNW 6.0 mph 10.0 mph 75 % 0.00 in 0 W/m2
02:38 33.4 °F 26.4 °F 29.87 in NW 6.0 mph 12.0 mph 75 % 0.00 in 0 W/m2
02:43 33.4 °F 26.4 °F 29.87 in NW 7.0 mph 12.0 mph 75 % 0.00 in 0 W/m2
02:48 33.6 °F 26.5 °F 29.87 in NW 7.0 mph 12.0 mph 75 % 0.00 in 0 W/m2
02:53 33.6 °F 26.2 °F 29.88 in NW 6.0 mph 12.0 mph 74 % 0.00 in 0 W/m2
02:58 33.8 °F 26.4 °F 29.88 in NW 6.0 mph 11.0 mph 74 % 0.00 in 0 W/m2
03:03 34.0 °F 26.2 °F 29.88 in NW 6.0 mph 11.0 mph 73 % 0.00 in 0 W/m2
03:08 34.0 °F 26.2 °F 29.88 in NW 6.0 mph 10.0 mph 73 % 0.00 in 0 W/m2
03:13 34.0 °F 26.2 °F 29.88 in NW 6.0 mph 12.0 mph 73 % 0.00 in 0 W/m2
03:18 34.0 °F 26.6 °F 29.88 in NW 5.0 mph 12.0 mph 74 % 0.00 in 0 W/m2
03:23 33.8 °F 26.4 °F 29.88 in WNW 5.0 mph 10.0 mph 74 % 0.00 in 0 W/m2
03:28 33.6 °F 26.2 °F 29.88 in NW 4.0 mph 9.0 mph 74 % 0.00 in 0 W/m2
03:33 33.6 °F 26.2 °F 29.88 in NW 3.0 mph 9.0 mph 74 % 0.00 in 0 W/m2
03:38 33.4 °F 26.0 °F 29.88 in NW 4.0 mph 8.0 mph 74 % 0.00 in 0 W/m2
03:43 33.4 °F 26.4 °F 29.88 in NW 4.0 mph 8.0 mph 75 % 0.00 in 0 W/m2
03:48 33.3 °F 26.2 °F 29.88 in NW 3.0 mph 8.0 mph 75 % 0.00 in 0 W/m2
03:53 33.1 °F 26.0 °F 29.89 in NW 3.0 mph 7.0 mph 75 % 0.00 in 0 W/m2
03:58 33.1 °F 26.3 °F 29.88 in NW 3.0 mph 7.0 mph 76 % 0.00 in 0 W/m2
04:03 32.9 °F 26.2 °F 29.89 in NW 3.0 mph 7.0 mph 76 % 0.00 in 0 W/m2
04:08 32.7 °F 26.0 °F 29.89 in NW 4.0 mph 10.0 mph 76 % 0.00 in 0 W/m2
04:13 32.7 °F 26.3 °F 29.89 in NW 4.0 mph 10.0 mph 77 % 0.00 in 0 W/m2
04:18 32.7 °F 26.3 °F 29.89 in NW 4.0 mph 8.0 mph 77 % 0.00 in 0 W/m2
04:23 32.7 °F 26.3 °F 29.89 in WNW 3.0 mph 8.0 mph 77 % 0.00 in 0 W/m2
04:28 32.5 °F 26.1 °F 29.89 in NW 2.0 mph 7.0 mph 77 % 0.00 in 0 W/m2
04:33 32.5 °F 26.4 °F 29.89 in WNW 3.0 mph 7.0 mph 78 % 0.00 in 0 W/m2
04:38 32.4 °F 26.3 °F 29.89 in WNW 3.0 mph 6.0 mph 78 % 0.00 in 0 W/m2
04:43 32.4 °F 26.3 °F 29.89 in WNW 3.0 mph 7.0 mph 78 % 0.00 in 0 W/m2
04:48 32.2 °F 26.4 °F 29.89 in NW 3.0 mph 7.0 mph 79 % 0.00 in 0 W/m2
04:53 32.2 °F 26.4 °F 29.89 in NW 4.0 mph 7.0 mph 79 % 0.00 in 0 W/m2
04:58 32.2 °F 26.4 °F 29.90 in NW 5.0 mph 8.0 mph 79 % 0.00 in 0 W/m2
05:03 32.2 °F 26.4 °F 29.89 in NW 5.0 mph 8.0 mph 79 % 0.00 in 0 W/m2
05:08 32.2 °F 26.4 °F 29.90 in NW 5.0 mph 9.0 mph 79 % 0.00 in 0 W/m2
05:13 32.2 °F 26.4 °F 29.90 in NW 5.0 mph 9.0 mph 79 % 0.00 in 0 W/m2
05:18 32.2 °F 26.4 °F 29.90 in NW 5.0 mph 9.0 mph 79 % 0.00 in 0 W/m2
05:23 32.2 °F 26.7 °F 29.90 in NW 5.0 mph 9.0 mph 80 % 0.00 in 0 W/m2
05:28 32.2 °F 26.7 °F 29.90 in WNW 5.0 mph 9.0 mph 80 % 0.00 in 0 W/m2
05:33 32.0 °F 26.5 °F 29.90 in NW 4.0 mph 8.0 mph 80 % 0.00 in 0 W/m2
05:38 32.0 °F 26.5 °F 29.91 in NW 4.0 mph 8.0 mph 80 % 0.00 in 0 W/m2
05:43 32.0 °F 26.5 °F 29.91 in NW 4.0 mph 8.0 mph 80 % 0.00 in 5 W/m2
05:48 32.0 °F 26.5 °F 29.91 in WNW 3.0 mph 8.0 mph 80 % 0.00 in 5 W/m2
05:54 31.8 °F 26.4 °F 29.91 in WNW 3.0 mph 8.0 mph 80 % 0.00 in 7 W/m2
05:59 31.8 °F 26.4 °F 29.91 in WNW 3.0 mph 8.0 mph 80 % 0.00 in 9 W/m2
06:04 31.6 °F 26.2 °F 29.92 in WNW 1.0 mph 5.0 mph 80 % 0.00 in 12 W/m2
06:09 31.6 °F 26.2 °F 29.92 in WNW 2.0 mph 5.0 mph 80 % 0.00 in 14 W/m2
06:14 31.5 °F 26.3 °F 29.92 in WNW 3.0 mph 6.0 mph 81 % 0.00 in 16 W/m2
06:19 31.5 °F 26.3 °F 29.92 in WNW 4.0 mph 8.0 mph 81 % 0.00 in 23 W/m2
06:24 31.6 °F 26.8 °F 29.92 in WNW 3.0 mph 8.0 mph 82 % 0.00 in 19 W/m2
06:29 31.6 °F 26.8 °F 29.92 in WNW 3.0 mph 6.0 mph 82 % 0.00 in 19 W/m2
06:34 31.6 °F 26.8 °F 29.92 in WNW 3.0 mph 6.0 mph 82 % 0.00 in 77 W/m2
06:39 31.8 °F 27.0 °F 29.92 in WNW 4.0 mph 8.0 mph 82 % 0.00 in 23 W/m2
06:44 32.2 °F 27.0 °F 29.92 in WNW 4.0 mph 11.0 mph 81 % 0.00 in 23 W/m2
06:49 32.4 °F 27.2 °F 29.92 in WNW 5.0 mph 11.0 mph 81 % 0.00 in 25 W/m2
06:54 32.7 °F 27.5 °F 29.92 in WNW 7.0 mph 12.0 mph 81 % 0.00 in 33 W/m2
06:59 33.1 °F 27.6 °F 29.92 in WNW 7.0 mph 13.0 mph 80 % 0.00 in 35 W/m2
07:04 33.3 °F 27.8 °F 29.92 in WNW 7.0 mph 13.0 mph 80 % 0.00 in 42 W/m2
07:09 33.6 °F 27.8 °F 29.92 in WNW 7.0 mph 13.0 mph 79 % 0.00 in 139 W/m2
07:14 34.3 °F 28.5 °F 29.92 in WNW 8.0 mph 13.0 mph 79 % 0.00 in 185 W/m2
07:19 35.1 °F 28.9 °F 29.92 in WNW 7.0 mph 13.0 mph 78 % 0.00 in 199 W/m2
07:24 35.8 °F 29.0 °F 29.93 in NW 7.0 mph 13.0 mph 76 % 0.00 in 213 W/m2
07:29 36.3 °F 29.2 °F 29.92 in NW 7.0 mph 13.0 mph 75 % 0.00 in 229 W/m2
07:34 36.9 °F 29.3 °F 29.93 in NW 6.0 mph 12.0 mph 74 % 0.00 in 241 W/m2
07:39 37.2 °F 29.0 °F 29.92 in WNW 7.0 mph 13.0 mph 72 % 0.00 in 257 W/m2
07:44 37.6 °F 29.0 °F 29.93 in WNW 8.0 mph 15.0 mph 71 % 0.00 in 269 W/m2
07:49 37.9 °F 29.0 °F 29.93 in NW 8.0 mph 15.0 mph 70 % 0.00 in 287 W/m2
07:54 38.5 °F 29.2 °F 29.93 in NW 7.0 mph 14.0 mph 69 % 0.00 in 299 W/m2
07:59 38.8 °F 29.2 °F 29.92 in NW 7.0 mph 14.0 mph 68 % 0.00 in 313 W/m2
08:04 39.4 °F 29.3 °F 29.93 in NW 6.0 mph 13.0 mph 67 % 0.00 in 325 W/m2
08:09 39.6 °F 29.1 °F 29.93 in NW 6.0 mph 13.0 mph 66 % 0.00 in 343 W/m2
08:14 39.6 °F 28.8 °F 29.93 in WNW 7.0 mph 14.0 mph 65 % 0.00 in 359 W/m2
08:19 39.9 °F 29.1 °F 29.93 in WNW 8.0 mph 14.0 mph 65 % 0.00 in 369 W/m2
08:24 40.3 °F 29.1 °F 29.93 in WNW 8.0 mph 16.0 mph 64 % 0.00 in 383 W/m2
08:30 40.6 °F 29.4 °F 29.94 in WNW 9.0 mph 16.0 mph 64 % 0.00 in 397 W/m2
08:34 41.0 °F 29.4 °F 29.94 in NW 8.0 mph 18.0 mph 63 % 0.00 in 269 W/m2
08:40 41.2 °F 29.1 °F 29.94 in WNW 9.0 mph 18.0 mph 62 % 0.00 in 390 W/m2
08:45 41.4 °F 29.7 °F 29.94 in WNW 9.0 mph 19.0 mph 63 % 0.00 in 448 W/m2
08:50 41.7 °F 29.6 °F 29.94 in NW 10.0 mph 20.0 mph 62 % 0.00 in 489 W/m2
08:55 42.1 °F 30.0 °F 29.94 in NW 11.0 mph 20.0 mph 62 % 0.00 in 429 W/m2
09:00 42.3 °F 30.2 °F 29.93 in WNW 9.0 mph 18.0 mph 62 % 0.00 in 227 W/m2
09:05 42.4 °F 30.3 °F 29.94 in WNW 8.0 mph 15.0 mph 62 % 0.00 in 519 W/m2
09:10 42.8 °F 30.7 °F 29.94 in NW 7.0 mph 15.0 mph 62 % 0.00 in 517 W/m2
09:15 43.2 °F 31.0 °F 29.94 in NW 9.0 mph 19.0 mph 62 % 0.00 in 520 W/m2
09:20 43.5 °F 31.4 °F 29.94 in NW 9.0 mph 19.0 mph 62 % 0.00 in 529 W/m2
09:25 44.1 °F 31.5 °F 29.94 in NW 8.0 mph 19.0 mph 61 % 0.00 in 550 W/m2
09:30 44.2 °F 31.2 °F 29.94 in NW 8.0 mph 16.0 mph 60 % 0.00 in 550 W/m2
09:35 44.8 °F 31.3 °F 29.94 in NW 9.0 mph 16.0 mph 59 % 0.00 in 571 W/m2
09:40 45.0 °F 31.9 °F 29.94 in NW 9.0 mph 18.0 mph 60 % 0.00 in 582 W/m2
09:45 45.1 °F 31.7 °F 29.93 in NW 9.0 mph 20.0 mph 59 % 0.00 in 622 W/m2
09:50 45.0 °F 31.1 °F 29.93 in NNW 10.0 mph 22.0 mph 58 % 0.00 in 610 W/m2
09:55 45.0 °F 31.1 °F 29.93 in NNW 11.0 mph 22.0 mph 58 % 0.00 in 619 W/m2
10:00 45.1 °F 31.7 °F 29.93 in NW 11.0 mph 20.0 mph 59 % 0.00 in 633 W/m2
10:05 45.7 °F 32.2 °F 29.94 in NW 10.0 mph 21.0 mph 59 % 0.00 in 657 W/m2
10:10 46.0 °F 31.6 °F 29.94 in NW 10.0 mph 21.0 mph 57 % 0.00 in 693 W/m2
10:15 46.0 °F 30.8 °F 29.93 in NW 12.0 mph 23.0 mph 55 % 0.00 in 675 W/m2
10:20 46.0 °F 30.8 °F 29.93 in NW 12.0 mph 23.0 mph 55 % 0.00 in 722 W/m2
10:25 46.2 °F 31.4 °F 29.93 in NW 12.0 mph 23.0 mph 56 % 0.00 in 759 W/m2
10:30 46.6 °F 31.3 °F 29.94 in NW 11.0 mph 23.0 mph 55 % 0.00 in 299 W/m2
10:35 46.6 °F 31.3 °F 29.94 in WNW 10.0 mph 22.0 mph 55 % 0.00 in 272 W/m2
10:40 46.0 °F 30.8 °F 29.94 in WNW 10.0 mph 22.0 mph 55 % 0.00 in 383 W/m2
10:45 46.0 °F 31.2 °F 29.94 in NW 9.0 mph 20.0 mph 56 % 0.00 in 241 W/m2
10:50 45.7 °F 30.9 °F 29.94 in NW 10.0 mph 22.0 mph 56 % 0.00 in 295 W/m2
10:55 45.3 °F 30.5 °F 29.94 in NW 11.0 mph 23.0 mph 56 % 0.00 in 209 W/m2
11:00 45.1 °F 31.2 °F 29.94 in NW 11.0 mph 23.0 mph 58 % 0.00 in 253 W/m2
11:05 45.0 °F 30.6 °F 29.94 in NW 12.0 mph 23.0 mph 57 % 0.00 in 202 W/m2
11:11 44.8 °F 30.9 °F 29.95 in NW 11.0 mph 23.0 mph 58 % 0.00 in 144 W/m2
11:16 44.4 °F 30.1 °F 29.95 in NW 9.0 mph 19.0 mph 57 % 0.00 in 121 W/m2
11:21 44.2 °F 29.5 °F 29.95 in NW 10.0 mph 19.0 mph 56 % 0.00 in 155 W/m2
11:26 43.9 °F 29.2 °F 29.95 in NW 10.0 mph 22.0 mph 56 % 0.00 in 190 W/m2
11:31 43.9 °F 29.2 °F 29.95 in NW 10.0 mph 22.0 mph 56 % 0.00 in 290 W/m2
11:36 44.2 °F 29.1 °F 29.94 in NW 10.0 mph 18.0 mph 55 % 0.00 in 392 W/m2
11:41 44.8 °F 29.6 °F 29.94 in NW 9.0 mph 18.0 mph 55 % 0.00 in 297 W/m2
11:46 45.1 °F 29.9 °F 29.94 in NW 7.0 mph 14.0 mph 55 % 0.00 in 313 W/m2
11:51 45.3 °F 29.6 °F 29.94 in NW 7.0 mph 14.0 mph 54 % 0.00 in 246 W/m2
11:56 45.7 °F 30.4 °F 29.94 in NW 9.0 mph 18.0 mph 55 % 0.00 in 239 W/m2
12:01 45.3 °F 30.1 °F 29.95 in NW 10.0 mph 21.0 mph 55 % 0.00 in 214 W/m2
12:06 45.1 °F 30.8 °F 29.95 in NW 10.0 mph 21.0 mph 57 % 0.00 in 186 W/m2
12:11 45.0 °F 30.6 °F 29.95 in NW 10.0 mph 20.0 mph 57 % 0.00 in 165 W/m2
12:16 44.6 °F 31.1 °F 29.95 in NW 9.0 mph 19.0 mph 59 % 0.00 in 167 W/m2
12:21 44.4 °F 31.8 °F 29.95 in NW 9.0 mph 16.0 mph 61 % 0.00 in 225 W/m2
12:26 44.2 °F 31.6 °F 29.95 in NW 10.0 mph 19.0 mph 61 % 0.00 in 276 W/m2
12:31 44.4 °F 31.8 °F 29.95 in NW 9.0 mph 19.0 mph 61 % 0.00 in 338 W/m2
12:36 45.0 °F 31.5 °F 29.95 in NW 9.0 mph 16.0 mph 59 % 0.00 in 397 W/m2
12:41 45.3 °F 31.8 °F 29.94 in NW 10.0 mph 16.0 mph 59 % 0.00 in 327 W/m2
12:46 45.7 °F 32.6 °F 29.94 in NW 9.0 mph 18.0 mph 60 % 0.00 in 281 W/m2
12:51 45.9 °F 32.7 °F 29.94 in WNW 9.0 mph 18.0 mph 60 % 0.00 in 301 W/m2
12:56 45.9 °F 32.7 °F 29.94 in WNW 9.0 mph 16.0 mph 60 % 0.00 in 272 W/m2
13:01 46.0 °F 32.1 °F 29.94 in NW 8.0 mph 16.0 mph 58 % 0.00 in 295 W/m2
13:06 46.2 °F 32.7 °F 29.94 in NW 8.0 mph 18.0 mph 59 % 0.00 in 462 W/m2
13:11 46.6 °F 32.6 °F 29.94 in NW 7.0 mph 18.0 mph 58 % 0.00 in 192 W/m2
13:16 46.4 °F 33.7 °F 29.95 in NW 8.0 mph 22.0 mph 61 % 0.00 in 213 W/m2
13:22 45.9 °F 34.4 °F 29.94 in NW 10.0 mph 22.0 mph 64 % 0.00 in 494 W/m2
13:27 46.0 °F 34.1 °F 29.94 in NW 9.0 mph 18.0 mph 63 % 0.00 in 483 W/m2
13:32 46.9 °F 35.4 °F 29.94 in NW 10.0 mph 18.0 mph 64 % 0.00 in 399 W/m2
13:37 47.3 °F 34.1 °F 29.94 in NW 10.0 mph 18.0 mph 60 % 0.00 in 411 W/m2
13:42 47.3 °F 34.1 °F 29.94 in NW 10.0 mph 20.0 mph 60 % 0.00 in 258 W/m2
13:47 46.9 °F 34.2 °F 29.94 in NW 9.0 mph 20.0 mph 61 % 0.00 in 135 W/m2
13:52 46.6 °F 34.7 °F 29.94 in NW 7.0 mph 15.0 mph 63 % 0.00 in 299 W/m2
13:57 46.4 °F 34.1 °F 29.94 in NW 6.0 mph 13.0 mph 62 % 0.00 in 506 W/m2
14:02 46.8 °F 34.4 °F 29.93 in NW 6.0 mph 13.0 mph 62 % 0.00 in 352 W/m2
14:07 47.3 °F 34.5 °F 29.94 in NW 7.0 mph 14.0 mph 61 % 0.00 in 223 W/m2
14:12 47.1 °F 36.0 °F 29.93 in NW 8.0 mph 15.0 mph 65 % 0.00 in 278 W/m2
14:17 47.5 °F 37.1 °F 29.93 in NW 8.0 mph 18.0 mph 67 % 0.00 in 921 W/m2
14:22 48.4 °F 36.0 °F 29.94 in NW 8.0 mph 18.0 mph 62 % 0.00 in 925 W/m2
14:27 49.3 °F 34.2 °F 29.94 in NW 9.0 mph 16.0 mph 56 % 0.00 in 264 W/m2
14:32 49.1 °F 34.9 °F 29.94 in NW 9.0 mph 16.0 mph 58 % 0.00 in 206 W/m2
14:37 48.4 °F 35.1 °F 29.94 in WNW 9.0 mph 18.0 mph 60 % 0.00 in 195 W/m2
14:42 47.5 °F 36.3 °F 29.94 in WNW 12.0 mph 26.0 mph 65 % 0.00 in 176 W/m2
14:47 46.0 °F 36.8 °F 29.94 in WNW 12.0 mph 26.0 mph 70 % 0.00 in 868 W/m2
14:52 46.0 °F 37.9 °F 29.94 in WNW 10.0 mph 18.0 mph 73 % 0.00 in 939 W/m2
14:57 46.4 °F 37.1 °F 29.94 in WNW 9.0 mph 14.0 mph 70 % 0.00 in 121 W/m2
15:02 46.2 °F 38.0 °F 29.94 in WNW 9.0 mph 14.0 mph 73 % 0.01 in 123 W/m2
15:07 45.7 °F 37.9 °F 29.93 in WNW 7.0 mph 13.0 mph 74 % 0.01 in 253 W/m2
15:12 45.7 °F 38.9 °F 29.94 in WNW 7.0 mph 12.0 mph 77 % 0.01 in 984 W/m2
15:17 45.9 °F 39.1 °F 29.93 in WNW 6.0 mph 12.0 mph 77 % 0.01 in 156 W/m2
15:22 46.0 °F 38.6 °F 29.95 in WNW 6.0 mph 10.0 mph 75 % 0.01 in 32 W/m2
15:27 45.7 °F 37.9 °F 29.95 in NW 6.0 mph 14.0 mph 74 % 0.01 in 26 W/m2
15:32 44.8 °F 35.9 °F 29.95 in NNW 6.0 mph 14.0 mph 71 % 0.02 in 60 W/m2
15:37 43.7 °F 36.0 °F 29.96 in NNW 8.0 mph 20.0 mph 74 % 0.02 in 121 W/m2
15:42 43.0 °F 35.9 °F 29.96 in North 11.0 mph 22.0 mph 76 % 0.02 in 123 W/m2
15:47 42.4 °F 36.4 °F 29.96 in North 11.0 mph 22.0 mph 79 % 0.02 in 98 W/m2
15:52 42.3 °F 36.2 °F 29.96 in North 7.0 mph 19.0 mph 79 % 0.02 in 72 W/m2
15:57 41.9 °F 35.2 °F 29.96 in NNE 6.0 mph 13.0 mph 77 % 0.02 in 105 W/m2
16:02 41.7 °F 35.0 °F 29.96 in NNE 5.0 mph 12.0 mph 77 % 0.01 in 144 W/m2
16:07 41.7 °F 35.0 °F 29.95 in North 4.0 mph 11.0 mph 77 % 0.01 in 188 W/m2
16:12 41.9 °F 35.9 °F 29.96 in NNW 4.0 mph 10.0 mph 79 % 0.01 in 218 W/m2
16:17 42.3 °F 36.5 °F 29.96 in NW 3.0 mph 8.0 mph 80 % 0.01 in 253 W/m2
16:22 42.6 °F 37.2 °F 29.96 in WNW 4.0 mph 9.0 mph 81 % 0.01 in 316 W/m2
16:27 43.2 °F 37.7 °F 29.96 in WNW 5.0 mph 9.0 mph 81 % 0.01 in 628 W/m2
16:33 44.1 °F 38.6 °F 29.96 in NW 5.0 mph 9.0 mph 81 % 0.00 in 668 W/m2
16:38 45.0 °F 38.5 °F 29.96 in NW 5.0 mph 11.0 mph 78 % 0.00 in 670 W/m2
16:43 45.7 °F 38.5 °F 29.96 in NW 6.0 mph 12.0 mph 76 % 0.00 in 193 W/m2
16:48 45.7 °F 37.9 °F 29.96 in NW 5.0 mph 12.0 mph 74 % 0.00 in 32 W/m2
16:53 45.1 °F 37.0 °F 29.96 in North 5.0 mph 21.0 mph 73 % 0.00 in 39 W/m2
16:58 44.2 °F 35.8 °F 29.96 in North 8.0 mph 21.0 mph 72 % 0.00 in 69 W/m2
17:03 43.9 °F 35.4 °F 29.96 in NNW 6.0 mph 14.0 mph 72 % 0.00 in 116 W/m2
17:08 43.7 °F 35.6 °F 29.96 in NNW 4.0 mph 10.0 mph 73 % 0.00 in 172 W/m2
17:13 43.7 °F 35.3 °F 29.96 in NNW 3.0 mph 8.0 mph 72 % 0.00 in 163 W/m2
17:18 43.9 °F 35.4 °F 29.96 in NNW 4.0 mph 10.0 mph 72 % 0.00 in 83 W/m2
17:23 43.9 °F 35.8 °F 29.97 in NNW 4.0 mph 11.0 mph 73 % 0.00 in 83 W/m2
17:28 43.7 °F 35.6 °F 29.96 in NNW 6.0 mph 15.0 mph 73 % 0.00 in 63 W/m2
17:33 43.5 °F 35.8 °F 29.96 in NNW 7.0 mph 15.0 mph 74 % 0.00 in 114 W/m2
17:38 43.3 °F 35.6 °F 29.96 in NW 6.0 mph 14.0 mph 74 % 0.00 in 155 W/m2
17:43 43.3 °F 35.6 °F 29.96 in NW 5.0 mph 14.0 mph 74 % 0.00 in 383 W/m2
17:48 44.1 °F 36.0 °F 29.96 in NW 5.0 mph 10.0 mph 73 % 0.00 in 387 W/m2
17:53 44.6 °F 36.1 °F 29.96 in NNW 5.0 mph 11.0 mph 72 % 0.00 in 359 W/m2
17:58 45.3 °F 36.5 °F 29.96 in NNW 5.0 mph 11.0 mph 71 % 0.00 in 343 W/m2
18:03 45.5 °F 35.5 °F 29.96 in NNW 5.0 mph 12.0 mph 68 % 0.00 in 60 W/m2
18:08 45.3 °F 35.7 °F 29.96 in NNW 5.0 mph 15.0 mph 69 % 0.00 in 60 W/m2
18:13 45.0 °F 35.4 °F 29.96 in NNW 5.0 mph 15.0 mph 69 % 0.00 in 70 W/m2
18:18 44.8 °F 35.9 °F 29.97 in NW 6.0 mph 12.0 mph 71 % 0.00 in 72 W/m2
18:23 44.4 °F 36.0 °F 29.97 in NW 7.0 mph 11.0 mph 72 % 0.00 in 63 W/m2
18:28 44.4 °F 36.6 °F 29.96 in NW 5.0 mph 11.0 mph 74 % 0.00 in 253 W/m2
18:29 44.4 °F 36.6 °F 29.96 in NW 5.0 mph 11.0 mph 74 % 0.00 in 253 W/m2
18:34 45.0 °F 36.5 °F 29.96 in NNW 7.0 mph 13.0 mph 72 % 0.00 in 232 W/m2
18:39 45.5 °F 36.6 °F 29.97 in NNW 8.0 mph 15.0 mph 71 % 0.00 in 218 W/m2
18:44 45.7 °F 36.1 °F 29.97 in NNW 7.0 mph 15.0 mph 69 % 0.00 in 109 W/m2
18:49 45.7 °F 36.5 °F 29.97 in NNW 5.0 mph 14.0 mph 70 % 0.00 in 100 W/m2
18:54 45.3 °F 35.7 °F 29.97 in North 4.0 mph 12.0 mph 69 % 0.00 in 60 W/m2
18:59 45.3 °F 35.4 °F 29.97 in North 7.0 mph 14.0 mph 68 % 0.00 in 120 W/m2
19:04 45.3 °F 35.0 °F 29.97 in North 7.0 mph 20.0 mph 67 % 0.00 in 77 W/m2
19:09 45.1 °F 34.1 °F 29.97 in North 6.0 mph 20.0 mph 65 % 0.00 in 46 W/m2
19:14 45.0 °F 33.9 °F 29.97 in NNE 7.0 mph 20.0 mph 65 % 0.00 in 28 W/m2
19:19 44.6 °F 33.6 °F 29.97 in NNE 7.0 mph 20.0 mph 65 % 0.00 in 23 W/m2
19:24 44.4 °F 33.8 °F 29.98 in North 6.0 mph 16.0 mph 66 % 0.00 in 33 W/m2
19:29 44.2 °F 33.6 °F 29.98 in North 6.0 mph 16.0 mph 66 % 0.00 in 47 W/m2
19:34 44.2 °F 34.0 °F 29.98 in North 6.0 mph 16.0 mph 67 % 0.00 in 79 W/m2
19:39 44.2 °F 33.6 °F 29.99 in North 8.0 mph 21.0 mph 66 % 0.00 in 70 W/m2
19:44 44.1 °F 34.2 °F 29.99 in NNE 9.0 mph 21.0 mph 68 % 0.00 in 39 W/m2
19:48 43.3 °F 34.2 °F 30.00 in NE 8.0 mph 20.0 mph 70 % 0.00 in 56 W/m2
19:53 42.6 °F 34.2 °F 30.00 in NE 6.0 mph 18.0 mph 72 % 0.00 in 28 W/m2
19:58 42.1 °F 34.0 °F 30.00 in NE 4.0 mph 12.0 mph 73 % 0.00 in 16 W/m2
20:03 41.7 °F 34.4 °F 30.00 in NE 3.0 mph 10.0 mph 75 % 0.00 in 12 W/m2
20:08 41.5 °F 34.5 °F 30.00 in NNE 5.0 mph 10.0 mph 76 % 0.00 in 9 W/m2
20:13 41.4 °F 34.7 °F 30.00 in NNE 5.0 mph 10.0 mph 77 % 0.00 in 5 W/m2
20:18 41.4 °F 34.7 °F 30.00 in NNE 5.0 mph 12.0 mph 77 % 0.00 in 5 W/m2
20:23 41.4 °F 35.0 °F 30.00 in NNE 5.0 mph 12.0 mph 78 % 0.00 in 0 W/m2
20:28 41.2 °F 35.2 °F 30.01 in North 6.0 mph 20.0 mph 79 % 0.00 in 0 W/m2
20:33 40.8 °F 35.4 °F 30.01 in North 8.0 mph 20.0 mph 81 % 0.00 in 0 W/m2
20:38 40.6 °F 35.6 °F 30.01 in North 6.0 mph 14.0 mph 82 % 0.00 in 0 W/m2
20:43 40.3 °F 34.9 °F 30.02 in North 6.0 mph 14.0 mph 81 % 0.00 in 0 W/m2
20:48 40.3 °F 34.9 °F 30.02 in North 7.0 mph 14.0 mph 81 % 0.00 in 0 W/m2
20:53 39.9 °F 34.2 °F 30.02 in North 7.0 mph 14.0 mph 80 % 0.00 in 0 W/m2
20:58 39.9 °F 34.2 °F 30.02 in North 7.0 mph 20.0 mph 80 % 0.00 in 0 W/m2
21:03 39.7 °F 34.1 °F 30.02 in North 5.0 mph 20.0 mph 80 % 0.00 in 0 W/m2
21:08 39.7 °F 34.1 °F 30.02 in North 4.0 mph 13.0 mph 80 % 0.00 in 0 W/m2
21:13 39.6 °F 33.9 °F 30.03 in North 5.0 mph 13.0 mph 80 % 0.00 in 0 W/m2
21:18 39.6 °F 33.9 °F 30.03 in North 6.0 mph 11.0 mph 80 % 0.00 in 0 W/m2
21:23 39.6 °F 34.2 °F 30.03 in North 6.0 mph 11.0 mph 81 % 0.00 in 0 W/m2
21:28 39.6 °F 34.2 °F 30.03 in North 5.0 mph 10.0 mph 81 % 0.00 in 0 W/m2
21:33 39.6 °F 34.2 °F 30.03 in NNW 3.0 mph 9.0 mph 81 % 0.00 in 0 W/m2
21:38 39.6 °F 34.5 °F 30.03 in NW 2.0 mph 7.0 mph 82 % 0.00 in 0 W/m2
21:43 39.6 °F 34.5 °F 30.03 in NW 3.0 mph 8.0 mph 82 % 0.00 in 0 W/m2
21:48 39.6 °F 34.5 °F 30.03 in NW 3.0 mph 8.0 mph 82 % 0.00 in 0 W/m2
21:53 39.6 °F 34.5 °F 30.03 in NW 2.0 mph 6.0 mph 82 % 0.00 in 0 W/m2
21:58 39.6 °F 34.5 °F 30.03 in NW 3.0 mph 10.0 mph 82 % 0.00 in 0 W/m2
22:03 39.7 °F 34.4 °F 30.03 in NW 5.0 mph 14.0 mph 81 % 0.00 in 0 W/m2
22:08 39.7 °F 34.4 °F 30.03 in NW 5.0 mph 14.0 mph 81 % 0.00 in 0 W/m2
22:13 39.7 °F 34.4 °F 30.03 in NW 7.0 mph 15.0 mph 81 % 0.00 in 0 W/m2
22:19 39.7 °F 34.4 °F 30.03 in NNW 8.0 mph 15.0 mph 81 % 0.00 in 0 W/m2
22:23 39.9 °F 34.6 °F 30.03 in North 9.0 mph 21.0 mph 81 % 0.00 in 0 W/m2
22:28 39.9 °F 34.6 °F 30.03 in North 9.0 mph 21.0 mph 81 % 0.00 in 0 W/m2
22:33 39.9 °F 34.6 °F 30.03 in North 7.0 mph 19.0 mph 81 % 0.00 in 0 W/m2
22:39 39.9 °F 34.9 °F 30.03 in North 7.0 mph 21.0 mph 82 % 0.00 in 0 W/m2
22:43 39.7 °F 34.7 °F 30.03 in North 7.0 mph 21.0 mph 82 % 0.00 in 0 W/m2
22:49 39.7 °F 34.7 °F 30.04 in NNW 6.0 mph 20.0 mph 82 % 0.00 in 0 W/m2
22:54 39.7 °F 34.7 °F 30.04 in NNW 6.0 mph 14.0 mph 82 % 0.00 in 0 W/m2
22:59 39.6 °F 34.8 °F 30.03 in NNW 7.0 mph 14.0 mph 83 % 0.00 in 0 W/m2
23:04 39.6 °F 34.8 °F 30.03 in NNW 7.0 mph 15.0 mph 83 % 0.00 in 0 W/m2
23:09 39.6 °F 34.8 °F 30.03 in NNW 6.0 mph 15.0 mph 83 % 0.00 in 0 W/m2
23:14 39.6 °F 34.8 °F 30.03 in NNW 5.0 mph 11.0 mph 83 % 0.00 in 0 W/m2
23:19 39.6 °F 34.8 °F 30.04 in NNW 6.0 mph 12.0 mph 83 % 0.00 in 0 W/m2
23:24 39.6 °F 34.8 °F 30.03 in NNW 6.0 mph 14.0 mph 83 % 0.00 in 0 W/m2
23:29 39.6 °F 34.8 °F 30.04 in NNW 6.0 mph 18.0 mph 83 % 0.00 in 0 W/m2
23:34 39.6 °F 34.5 °F 30.04 in NNW 7.0 mph 18.0 mph 82 % 0.00 in 0 W/m2
23:39 39.6 °F 34.5 °F 30.04 in NNW 7.0 mph 14.0 mph 82 % 0.00 in 0 W/m2
23:44 39.6 °F 34.5 °F 30.04 in NNW 6.0 mph 15.0 mph 82 % 0.00 in 0 W/m2
23:49 39.6 °F 34.5 °F 30.04 in NNW 7.0 mph 16.0 mph 82 % 0.00 in 0 W/m2
23:54 39.6 °F 34.5 °F 30.04 in NNW 8.0 mph 18.0 mph 82 % 0.00 in 0 W/m2
23:59 39.6 °F 34.8 °F 30.05 in NNW 8.0 mph 18.0 mph 83 % 0.00 in 0 W/m2
Delerius-Weather
Compliments of Weather Underground - 2.25 mb

Data updates at regular intervals.